scoobynet.com alexa rank chart, scoobynet.com alexa rank daily changes

scoobynet.com alexa rank chart, scoobynet.com alexa rank daily changes

scoobynet.com
Actual rank:
156 500

RANK HISTORY

Date Rank Diff
2017/05/23 156 500 -583
2017/05/22 157 083 -3 354
2017/05/21 160 437 +1 312
2017/05/20 159 125 +398
2017/05/19 158 727 -360
2017/05/18 159 087 +1 434
2017/05/17 157 653 +208
2017/05/16 157 445 -2 542
2017/05/15 159 987 +1 797
2017/05/14 158 190 +760
2017/05/13 157 430 -1 787
2017/05/12 159 217 -1 409
2017/05/11 160 626 +486
2017/05/10 160 140 +876
2017/05/09 159 264 -849
2017/05/08 160 113 -4 066
2017/05/07 164 179 -99
2017/05/06 164 278 +6 040
2017/05/05 158 238 -2 258
2017/05/04 160 496 +907
2017/05/03 159 589 -1 434
2017/05/02 161 023 -983
2017/05/01 162 006 +640
2017/04/30 161 366 -1 526
2017/04/29 162 892 +989
2017/04/28 161 903 +3 520
2017/04/27 158 383 -295
2017/04/26 158 678 -2 114
2017/04/25 160 792 +924
2017/04/24 159 868 +305
2017/04/23 159 563 +710
2017/04/22 158 853 -295
2017/04/21 159 148 -1 341
2017/04/20 160 489 -1 230
2017/04/19 161 719 -403
2017/04/18 162 122 -481
2017/04/17 162 603 -1 841
2017/04/16 164 444 +755
2017/04/15 163 689 +710
2017/04/14 162 979 -2 433
2017/04/13 165 412 +3 110
2017/04/12 162 302 -2 728
2017/04/11 165 030 -1 204
2017/04/10 166 234 +365
2017/04/09 165 869 +1 569
2017/04/08 164 300 +745
2017/04/07 163 555 -1 617
2017/04/06 165 172 -3 944
2017/04/05 169 116 +971
2017/04/04 168 145 -2 289
2017/04/03 170 434 +2 321
2017/04/02 168 113 -293
2017/04/01 168 406 +445
2017/03/31 167 961 +529
2017/03/30 167 432 +279
2017/03/29 167 153 -2 692
2017/03/28 169 845 -4 218
2017/03/27 174 063 -474
2017/03/26 174 537 +1 917
2017/03/25 172 620 +2 086
2017/03/24 170 534

WIDGET FOR YOUR SITE

DOMAINS WITH THE NEAREST RANK

Domain Rank
clevelandart.org 156 495
porno-juegos.com 156 496
iconmale.com 156 497
ttplus.cn 156 498
ote.space 156 499
scoobynet.com 156 500
fakturoid.cz 156 501
rexx-hr.com 156 502
storececotec.net 156 503
parnianpc.com 156 504
logink4d.com 156 505

DOMAINS WITH THE NEAREST RANK BY TLD .com

Domain Rank
samsunhaber.com 156 472
wowsomegames.com 156 475
getitwriteonline.com 156 493
porno-juegos.com 156 496
iconmale.com 156 497
scoobynet.com 156 500
rexx-hr.com 156 502
parnianpc.com 156 504
logink4d.com 156 505
eettaiwan.com 156 506
wemoto.com 156 508